contact:dominique.lefevre@mio.osupytheas.fr, maurice.libes@osupytheas.fr, didier.mallarino@osupytheas.fr
Project:EMSO http://www.emso-fr.org/EMSO-France
Depth: 2436.0 m
Title:EMSO Ligure Ouest : Data MII capteur MICROCAT
DateTime_Computer,Latitude,Longitude,Temperature,Conductivity,Pressure,DateTime_Instrument
DateTime_Computer,Latitude,Longitude,degC,S m-1,dbar,DateTime_Instrument
2023-02-18T00:00:30Z,42.805,6.029,13.3041,4.60151,2470.437,2023-2-18T02:02:56Z
2023-02-18T00:03:33Z,42.805,6.029,13.3067,4.60173,2470.45,2023-2-18T02:05:59Z
2023-02-18T00:06:37Z,42.805,6.029,13.3048,4.60154,2470.45,2023-2-18T02:09:02Z
2023-02-18T00:09:40Z,42.805,6.029,13.3059,4.60182,2470.474,2023-2-18T02:12:05Z
2023-02-18T00:12:43Z,42.805,6.029,13.3051,4.60142,2470.413,2023-2-18T02:15:08Z
2023-02-18T00:15:46Z,42.805,6.029,13.3045,4.60131,2470.437,2023-2-18T02:18:11Z
2023-02-18T00:18:49Z,42.805,6.029,13.3048,4.60161,2470.474,2023-2-18T02:21:14Z
2023-02-18T00:21:52Z,42.805,6.029,13.3065,4.60128,2470.46,2023-2-18T02:24:17Z
2023-02-18T00:24:55Z,42.805,6.029,13.3070,4.60116,2470.45,2023-2-18T02:27:20Z
2023-02-18T00:27:58Z,42.805,6.029,13.3070,4.60120,2470.45,2023-2-18T02:30:23Z
2023-02-18T00:31:01Z,42.805,6.029,13.3058,4.60162,2470.446,2023-2-18T02:33:27Z
2023-02-18T00:34:04Z,42.805,6.029,13.3061,4.60110,2470.474,2023-2-18T02:36:30Z
2023-02-18T00:37:07Z,42.805,6.029,13.3059,4.60168,2470.45,2023-2-18T02:39:33Z
2023-02-18T00:40:10Z,42.805,6.029,13.3059,4.60145,2470.474,2023-2-18T02:42:36Z
2023-02-18T00:43:14Z,42.805,6.029,13.3063,4.60127,2470.437,2023-2-18T02:45:39Z
2023-02-18T00:46:17Z,42.805,6.029,13.3065,4.60127,2470.437,2023-2-18T02:48:42Z
2023-02-18T00:49:20Z,42.805,6.029,13.3055,4.60170,2470.437,2023-2-18T02:51:45Z
2023-02-18T00:52:23Z,42.805,6.029,13.3063,4.60151,2470.437,2023-2-18T02:54:48Z
2023-02-18T00:55:26Z,42.805,6.029,13.3069,4.60131,2470.483,2023-2-18T02:57:51Z
2023-02-18T00:58:29Z,42.805,6.029,13.3034,4.60104,2470.474,2023-2-18T03:00:54Z
2023-02-18T01:01:32Z,42.805,6.029,13.3051,4.60105,2470.474,2023-2-18T03:03:57Z
2023-02-18T01:04:35Z,42.805,6.029,13.3031,4.60116,2470.497,2023-2-18T03:07:00Z
2023-02-18T01:07:38Z,42.805,6.029,13.3025,4.60099,2470.483,2023-2-18T03:10:04Z
2023-02-18T01:10:41Z,42.805,6.029,13.3024,4.60091,2470.46,2023-2-18T03:13:07Z
2023-02-18T01:13:44Z,42.805,6.029,13.3024,4.60089,2470.483,2023-2-18T03:16:10Z
2023-02-18T01:16:47Z,42.805,6.029,13.3021,4.60079,2470.52,2023-2-18T03:19:13Z
2023-02-18T01:19:50Z,42.805,6.029,13.3025,4.60085,2470.497,2023-2-18T03:22:16Z
2023-02-18T01:22:54Z,42.805,6.029,13.3024,4.60085,2470.507,2023-2-18T03:25:19Z
2023-02-18T01:25:57Z,42.805,6.029,13.3019,4.60084,2470.474,2023-2-18T03:28:22Z
2023-02-18T01:29:00Z,42.805,6.029,13.3024,4.60079,2470.46,2023-2-18T03:31:25Z
2023-02-18T01:32:03Z,42.805,6.029,13.3023,4.60079,2470.474,2023-2-18T03:34:28Z
2023-02-18T01:35:06Z,42.805,6.029,13.3022,4.60084,2470.483,2023-2-18T03:37:31Z
2023-02-18T01:38:09Z,42.805,6.029,13.3022,4.60091,2470.46,2023-2-18T03:40:34Z
2023-02-18T01:41:12Z,42.805,6.029,13.3024,4.60089,2470.52,2023-2-18T03:43:37Z
2023-02-18T01:44:15Z,42.805,6.029,13.3022,4.60087,2470.497,2023-2-18T03:46:41Z
2023-02-18T01:47:18Z,42.805,6.029,13.3024,4.60079,2470.544,2023-2-18T03:49:44Z
2023-02-18T01:50:21Z,42.805,6.029,13.3023,4.60079,2470.507,2023-2-18T03:52:47Z
2023-02-18T01:53:24Z,42.805,6.029,13.3022,4.60077,2470.483,2023-2-18T03:55:50Z
2023-02-18T01:56:27Z,42.805,6.029,13.3019,4.60079,2470.507,2023-2-18T03:58:53Z
2023-02-18T01:59:30Z,42.805,6.029,13.3022,4.60079,2470.507,2023-2-18T04:01:56Z
2023-02-18T02:02:34Z,42.805,6.029,13.3024,4.60078,2470.507,2023-2-18T04:04:59Z
2023-02-18T02:05:37Z,42.805,6.029,13.3024,4.60078,2470.53,2023-2-18T04:08:02Z
2023-02-18T02:08:40Z,42.805,6.029,13.3023,4.60079,2470.507,2023-2-18T04:11:05Z
2023-02-18T02:11:43Z,42.805,6.029,13.3022,4.60079,2470.507,2023-2-18T04:14:08Z
2023-02-18T02:14:46Z,42.805,6.029,13.3025,4.60081,2470.53,2023-2-18T04:17:11Z
2023-02-18T02:17:49Z,42.805,6.029,13.3034,4.60084,2470.553,2023-2-18T04:20:14Z
2023-02-18T02:20:52Z,42.805,6.029,13.3023,4.60084,2470.53,2023-2-18T04:23:18Z
2023-02-18T02:23:55Z,42.805,6.029,13.3027,4.60081,2470.52,2023-2-18T04:26:21Z
2023-02-18T02:26:58Z,42.805,6.029,13.3022,4.60078,2470.507,2023-2-18T04:29:24Z
2023-02-18T02:30:01Z,42.805,6.029,13.3031,4.60108,2470.544,2023-2-18T04:32:27Z
2023-02-18T02:33:04Z,42.805,6.029,13.3031,4.60109,2470.507,2023-2-18T04:35:30Z
2023-02-18T02:36:07Z,42.805,6.029,13.3050,4.60151,2470.53,2023-2-18T04:38:33Z
2023-02-18T02:39:11Z,42.805,6.029,13.3041,4.60115,2470.497,2023-2-18T04:41:36Z
2023-02-18T02:42:14Z,42.805,6.029,13.3040,4.60135,2470.53,2023-2-18T04:44:39Z
2023-02-18T02:45:17Z,42.805,6.029,13.3046,4.60143,2470.553,2023-2-18T04:47:42Z
2023-02-18T02:48:20Z,42.805,6.029,13.3053,4.60114,2470.553,2023-2-18T04:50:45Z
2023-02-18T02:51:23Z,42.805,6.029,13.3053,4.60115,2470.553,2023-2-18T04:53:48Z
2023-02-18T02:54:26Z,42.805,6.029,13.3045,4.60114,2470.553,2023-2-18T04:56:51Z
2023-02-18T02:57:29Z,42.805,6.029,13.3061,4.60111,2470.53,2023-2-18T04:59:54Z
2023-02-18T03:00:32Z,42.805,6.029,13.3054,4.60095,2470.52,2023-2-18T05:02:58Z
2023-02-18T03:03:35Z,42.805,6.029,13.3036,4.60102,2470.577,2023-2-18T05:06:01Z
2023-02-18T03:06:38Z,42.805,6.029,13.3042,4.60093,2470.577,2023-2-18T05:09:04Z
2023-02-18T03:09:41Z,42.805,6.029,13.3049,4.60124,2470.567,2023-2-18T05:12:07Z
2023-02-18T03:12:44Z,42.805,6.029,13.3055,4.60127,2470.53,2023-2-18T05:15:10Z
2023-02-18T03:15:47Z,42.805,6.029,13.3039,4.60109,2470.577,2023-2-18T05:18:13Z
2023-02-18T03:18:51Z,42.805,6.029,13.3047,4.60102,2470.591,2023-2-18T05:21:16Z
2023-02-18T03:21:54Z,42.805,6.029,13.3058,4.60102,2470.577,2023-2-18T05:24:19Z
2023-02-18T03:24:57Z,42.805,6.029,13.3046,4.60114,2470.577,2023-2-18T05:27:22Z
2023-02-18T03:28:00Z,42.805,6.029,13.3052,4.60140,2470.6,2023-2-18T05:30:25Z
2023-02-18T03:31:03Z,42.805,6.029,13.3054,4.60149,2470.6,2023-2-18T05:33:28Z
2023-02-18T03:34:06Z,42.805,6.029,13.3053,4.60135,2470.591,2023-2-18T05:36:31Z
2023-02-18T03:37:09Z,42.805,6.029,13.3044,4.60153,2470.6,2023-2-18T05:39:34Z
2023-02-18T03:40:12Z,42.805,6.029,13.3049,4.60129,2470.6,2023-2-18T05:42:38Z
2023-02-18T03:43:15Z,42.805,6.029,13.3043,4.60137,2470.6,2023-2-18T05:45:41Z
2023-02-18T03:46:18Z,42.805,6.029,13.3041,4.60144,2470.624,2023-2-18T05:48:44Z
2023-02-18T03:49:21Z,42.805,6.029,13.3041,4.60135,2470.624,2023-2-18T05:51:47Z
2023-02-18T03:52:24Z,42.805,6.029,13.3041,4.60141,2470.577,2023-2-18T05:54:50Z
2023-02-18T03:55:28Z,42.805,6.029,13.3047,4.60135,2470.624,2023-2-18T05:57:53Z
2023-02-18T03:58:31Z,42.805,6.029,13.3046,4.60119,2470.646,2023-2-18T06:00:56Z
2023-02-18T04:01:34Z,42.805,6.029,13.3051,4.60157,2470.6,2023-2-18T06:03:59Z
2023-02-18T04:04:37Z,42.805,6.029,13.3046,4.60149,2470.637,2023-2-18T06:07:02Z
2023-02-18T04:07:40Z,42.805,6.029,13.3058,4.60185,2470.61,2023-2-18T06:10:05Z
2023-02-18T04:10:43Z,42.805,6.029,13.3043,4.60135,2470.661,2023-2-18T06:13:08Z
2023-02-18T04:13:46Z,42.805,6.029,13.3046,4.60120,2470.637,2023-2-18T06:16:11Z
2023-02-18T04:16:49Z,42.805,6.029,13.3059,4.60142,2470.67,2023-2-18T06:19:15Z
2023-02-18T04:19:52Z,42.805,6.029,13.3035,4.60140,2470.624,2023-2-18T06:22:18Z
2023-02-18T04:22:55Z,42.805,6.029,13.3023,4.60086,2470.646,2023-2-18T06:25:21Z
2023-02-18T04:25:58Z,42.805,6.029,13.3038,4.60080,2470.637,2023-2-18T06:28:24Z
2023-02-18T04:29:01Z,42.805,6.029,13.3048,4.60106,2470.637,2023-2-18T06:31:27Z
2023-02-18T04:32:04Z,42.805,6.029,13.3055,4.60150,2470.646,2023-2-18T06:34:30Z
2023-02-18T04:35:08Z,42.805,6.029,13.3063,4.60134,2470.624,2023-2-18T06:37:33Z
2023-02-18T04:38:11Z,42.805,6.029,13.3056,4.60115,2470.661,2023-2-18T06:40:36Z
2023-02-18T04:41:14Z,42.805,6.029,13.3058,4.60126,2470.646,2023-2-18T06:43:39Z
2023-02-18T04:44:17Z,42.805,6.029,13.3058,4.60100,2470.646,2023-2-18T06:46:42Z
2023-02-18T04:47:20Z,42.805,6.029,13.3051,4.60121,2470.67,2023-2-18T06:49:45Z
2023-02-18T04:50:23Z,42.805,6.029,13.3058,4.60119,2470.661,2023-2-18T06:52:48Z
2023-02-18T04:53:26Z,42.805,6.029,13.3058,4.60140,2470.67,2023-2-18T06:55:52Z
2023-02-18T04:56:29Z,42.805,6.029,13.3033,4.60102,2470.67,2023-2-18T06:58:55Z
2023-02-18T04:59:32Z,42.805,6.029,13.3075,4.60137,2470.693,2023-2-18T07:01:58Z
2023-02-18T05:02:35Z,42.805,6.029,13.3022,4.60084,2470.684,2023-2-18T07:05:01Z
2023-02-18T05:05:38Z,42.805,6.029,13.3025,4.60090,2470.684,2023-2-18T07:08:04Z
2023-02-18T05:08:41Z,42.805,6.029,13.3034,4.60089,2470.646,2023-2-18T07:11:07Z
2023-02-18T05:11:45Z,42.805,6.029,13.3061,4.60089,2470.707,2023-2-18T07:14:10Z
2023-02-18T05:14:48Z,42.805,6.029,13.3046,4.60100,2470.693,2023-2-18T07:17:13Z
2023-02-18T05:17:51Z,42.805,6.029,13.3052,4.60110,2470.67,2023-2-18T07:20:16Z
2023-02-18T05:20:54Z,42.805,6.029,13.3052,4.60099,2470.67,2023-2-18T07:23:19Z
2023-02-18T05:23:57Z,42.805,6.029,13.3037,4.60093,2470.67,2023-2-18T07:26:22Z
2023-02-18T05:27:00Z,42.805,6.029,13.3018,4.60081,2470.67,2023-2-18T07:29:25Z
2023-02-18T05:30:03Z,42.805,6.029,13.3019,4.60077,2470.67,2023-2-18T07:32:28Z
2023-02-18T05:33:06Z,42.805,6.029,13.3018,4.60079,2470.707,2023-2-18T07:35:32Z
2023-02-18T05:36:09Z,42.805,6.029,13.3021,4.60079,2470.707,2023-2-18T07:38:35Z
2023-02-18T05:39:12Z,42.805,6.029,13.3019,4.60074,2470.67,2023-2-18T07:41:38Z
2023-02-18T05:42:15Z,42.805,6.029,13.3017,4.60081,2470.684,2023-2-18T07:44:41Z
2023-02-18T05:45:18Z,42.805,6.029,13.3019,4.60079,2470.693,2023-2-18T07:47:44Z
2023-02-18T05:48:21Z,42.805,6.029,13.3033,4.60082,2470.707,2023-2-18T07:50:47Z
2023-02-18T05:51:25Z,42.805,6.029,13.3029,4.60104,2470.693,2023-2-18T07:53:50Z
2023-02-18T05:54:28Z,42.805,6.029,13.3019,4.60083,2470.67,2023-2-18T07:56:53Z
2023-02-18T05:57:31Z,42.805,6.029,13.3024,4.60081,2470.67,2023-2-18T07:59:56Z
2023-02-18T06:00:34Z,42.805,6.029,13.3019,4.60081,2470.67,2023-2-18T08:02:59Z
2023-02-18T06:03:37Z,42.805,6.029,13.3020,4.60081,2470.67,2023-2-18T08:06:02Z
2023-02-18T06:06:40Z,42.805,6.029,13.3018,4.60076,2470.707,2023-2-18T08:09:05Z
2023-02-18T06:09:43Z,42.805,6.029,13.3019,4.60077,2470.707,2023-2-18T08:12:08Z
2023-02-18T06:12:46Z,42.805,6.029,13.3018,4.60079,2470.693,2023-2-18T08:15:12Z
2023-02-18T06:15:49Z,42.805,6.029,13.3014,4.60079,2470.684,2023-2-18T08:18:15Z
2023-02-18T06:18:52Z,42.805,6.029,13.3024,4.60075,2470.693,2023-2-18T08:21:18Z
2023-02-18T06:21:55Z,42.805,6.029,13.3019,4.60078,2470.707,2023-2-18T08:24:21Z
2023-02-18T06:24:58Z,42.805,6.029,13.3022,4.60080,2470.646,2023-2-18T08:27:24Z
2023-02-18T06:28:01Z,42.805,6.029,13.3021,4.60078,2470.693,2023-2-18T08:30:27Z
2023-02-18T06:31:05Z,42.805,6.029,13.3019,4.60079,2470.693,2023-2-18T08:33:30Z
2023-02-18T06:34:08Z,42.805,6.029,13.3019,4.60077,2470.693,2023-2-18T08:36:33Z
2023-02-18T06:37:11Z,42.805,6.029,13.3020,4.60079,2470.707,2023-2-18T08:39:36Z
2023-02-18T06:40:14Z,42.805,6.029,13.3018,4.60084,2470.646,2023-2-18T08:42:39Z
2023-02-18T06:43:17Z,42.805,6.029,13.3019,4.60075,2470.646,2023-2-18T08:45:42Z
2023-02-18T06:46:20Z,42.805,6.029,13.3017,4.60075,2470.67,2023-2-18T08:48:46Z
2023-02-18T06:49:23Z,42.805,6.029,13.3021,4.60076,2470.693,2023-2-18T08:51:49Z
2023-02-18T06:52:26Z,42.805,6.029,13.3017,4.60078,2470.684,2023-2-18T08:54:52Z
2023-02-18T06:55:29Z,42.805,6.029,13.3021,4.60081,2470.707,2023-2-18T08:57:55Z
2023-02-18T06:58:32Z,42.805,6.029,13.3020,4.60077,2470.67,2023-2-18T09:00:58Z
2023-02-18T07:01:35Z,42.805,6.029,13.3021,4.60080,2470.67,2023-2-18T09:04:01Z
2023-02-18T07:04:38Z,42.805,6.029,13.3019,4.60079,2470.67,2023-2-18T09:07:04Z
2023-02-18T07:07:41Z,42.805,6.029,13.3019,4.60077,2470.67,2023-2-18T09:10:07Z
2023-02-18T07:10:45Z,42.805,6.029,13.3021,4.60079,2470.646,2023-2-18T09:13:10Z
2023-02-18T07:13:48Z,42.805,6.029,13.3021,4.60077,2470.67,2023-2-18T09:16:13Z
2023-02-18T07:16:51Z,42.805,6.029,13.3020,4.60079,2470.693,2023-2-18T09:19:16Z
2023-02-18T07:19:54Z,42.805,6.029,13.3019,4.60079,2470.67,2023-2-18T09:22:19Z
2023-02-18T07:22:57Z,42.805,6.029,13.3021,4.60081,2470.67,2023-2-18T09:25:22Z
2023-02-18T07:26:00Z,42.805,6.029,13.3019,4.60077,2470.707,2023-2-18T09:28:26Z
2023-02-18T07:29:03Z,42.805,6.029,13.3015,4.60076,2470.693,2023-2-18T09:31:29Z
2023-02-18T07:32:06Z,42.805,6.029,13.3020,4.60076,2470.707,2023-2-18T09:34:32Z
2023-02-18T07:35:09Z,42.805,6.029,13.3017,4.60076,2470.67,2023-2-18T09:37:35Z
2023-02-18T07:38:12Z,42.805,6.029,13.3019,4.60078,2470.656,2023-2-18T09:40:38Z
2023-02-18T07:41:15Z,42.805,6.029,13.3021,4.60078,2470.693,2023-2-18T09:43:41Z
2023-02-18T07:44:18Z,42.805,6.029,13.3019,4.60076,2470.67,2023-2-18T09:46:44Z
2023-02-18T07:47:22Z,42.805,6.029,13.3021,4.60080,2470.707,2023-2-18T09:49:47Z
2023-02-18T07:50:25Z,42.805,6.029,13.3017,4.60076,2470.693,2023-2-18T09:52:50Z
2023-02-18T07:53:28Z,42.805,6.029,13.3022,4.60077,2470.684,2023-2-18T09:55:53Z
2023-02-18T07:56:31Z,42.805,6.029,13.3019,4.60075,2470.646,2023-2-18T09:58:56Z
2023-02-18T07:59:34Z,42.805,6.029,13.3020,4.60077,2470.684,2023-2-18T10:01:59Z
2023-02-18T08:02:37Z,42.805,6.029,13.3019,4.60075,2470.67,2023-2-18T10:05:03Z
2023-02-18T08:05:40Z,42.805,6.029,13.3024,4.60077,2470.707,2023-2-18T10:08:06Z
2023-02-18T08:08:43Z,42.805,6.029,13.3019,4.60077,2470.684,2023-2-18T10:11:09Z
2023-02-18T08:11:46Z,42.805,6.029,13.3021,4.60077,2470.646,2023-2-18T10:14:12Z
2023-02-18T08:14:49Z,42.805,6.029,13.3018,4.60077,2470.67,2023-2-18T10:17:15Z
2023-02-18T08:17:52Z,42.805,6.029,13.3020,4.60077,2470.67,2023-2-18T10:20:18Z
2023-02-18T08:20:55Z,42.805,6.029,13.3024,4.60081,2470.67,2023-2-18T10:23:21Z
2023-02-18T08:23:59Z,42.805,6.029,13.3022,4.60079,2470.67,2023-2-18T10:26:24Z
2023-02-18T08:27:02Z,42.805,6.029,13.3020,4.60077,2470.624,2023-2-18T10:29:27Z
2023-02-18T08:30:05Z,42.805,6.029,13.3021,4.60081,2470.646,2023-2-18T10:32:30Z
2023-02-18T08:33:08Z,42.805,6.029,13.3019,4.60077,2470.637,2023-2-18T10:35:33Z
2023-02-18T08:36:11Z,42.805,6.029,13.3021,4.60074,2470.661,2023-2-18T10:38:36Z
2023-02-18T08:39:14Z,42.805,6.029,13.3019,4.60084,2470.624,2023-2-18T10:41:40Z
2023-02-18T08:42:17Z,42.805,6.029,13.3021,4.60078,2470.661,2023-2-18T10:44:43Z
2023-02-18T08:45:20Z,42.805,6.029,13.3019,4.60075,2470.646,2023-2-18T10:47:46Z
2023-02-18T08:48:23Z,42.805,6.029,13.3020,4.60075,2470.646,2023-2-18T10:50:49Z
2023-02-18T08:51:26Z,42.805,6.029,13.3021,4.60080,2470.67,2023-2-18T10:53:52Z
2023-02-18T08:54:29Z,42.805,6.029,13.3015,4.60074,2470.646,2023-2-18T10:56:55Z
2023-02-18T08:57:32Z,42.805,6.029,13.3023,4.60074,2470.624,2023-2-18T10:59:58Z
2023-02-18T09:00:36Z,42.805,6.029,13.3020,4.60081,2470.646,2023-2-18T11:03:01Z
2023-02-18T09:03:39Z,42.805,6.029,13.3023,4.60078,2470.646,2023-2-18T11:06:04Z
2023-02-18T09:06:42Z,42.805,6.029,13.3020,4.60075,2470.637,2023-2-18T11:09:07Z
2023-02-18T09:09:45Z,42.805,6.029,13.3023,4.60077,2470.637,2023-2-18T11:12:10Z
2023-02-18T09:12:48Z,42.805,6.029,13.3020,4.60076,2470.646,2023-2-18T11:15:13Z
2023-02-18T09:15:51Z,42.805,6.029,13.3021,4.60076,2470.6,2023-2-18T11:18:17Z
2023-02-18T09:18:54Z,42.805,6.029,13.3021,4.60074,2470.661,2023-2-18T11:21:20Z
2023-02-18T09:21:57Z,42.805,6.029,13.3017,4.60076,2470.6,2023-2-18T11:24:23Z
2023-02-18T09:25:00Z,42.805,6.029,13.3022,4.60080,2470.637,2023-2-18T11:27:26Z
2023-02-18T09:28:03Z,42.805,6.029,13.3020,4.60076,2470.624,2023-2-18T11:30:29Z
2023-02-18T09:31:06Z,42.805,6.029,13.3018,4.60076,2470.637,2023-2-18T11:33:32Z
2023-02-18T09:34:09Z,42.805,6.029,13.3023,4.60083,2470.6,2023-2-18T11:36:35Z
2023-02-18T09:37:13Z,42.805,6.029,13.3020,4.60076,2470.6,2023-2-18T11:39:38Z
2023-02-18T09:40:16Z,42.805,6.029,13.3024,4.60076,2470.624,2023-2-18T11:42:41Z
2023-02-18T09:43:19Z,42.805,6.029,13.3021,4.60077,2470.577,2023-2-18T11:45:44Z
2023-02-18T09:46:22Z,42.805,6.029,13.3024,4.60077,2470.6,2023-2-18T11:48:47Z
2023-02-18T09:49:25Z,42.805,6.029,13.3022,4.60077,2470.577,2023-2-18T11:51:51Z
2023-02-18T09:52:28Z,42.805,6.029,13.3024,4.60077,2470.614,2023-2-18T11:54:54Z
2023-02-18T09:55:31Z,42.805,6.029,13.3019,4.60077,2470.624,2023-2-18T11:57:57Z
2023-02-18T09:58:34Z,42.805,6.029,13.3024,4.60078,2470.6,2023-2-18T12:01:00Z
2023-02-18T10:01:37Z,42.805,6.029,13.3022,4.60077,2470.614,2023-2-18T12:04:03Z
2023-02-18T10:04:40Z,42.805,6.029,13.3025,4.60081,2470.6,2023-2-18T12:07:06Z
2023-02-18T10:07:43Z,42.805,6.029,13.3024,4.60079,2470.6,2023-2-18T12:10:09Z
2023-02-18T10:10:46Z,42.805,6.029,13.3024,4.60078,2470.6,2023-2-18T12:13:12Z
2023-02-18T10:13:50Z,42.805,6.029,13.3027,4.60078,2470.577,2023-2-18T12:16:15Z
2023-02-18T10:16:53Z,42.805,6.029,13.3022,4.60081,2470.6,2023-2-18T12:19:18Z
2023-02-18T10:19:56Z,42.805,6.029,13.3021,4.60079,2470.577,2023-2-18T12:22:21Z
2023-02-18T10:22:59Z,42.805,6.029,13.3021,4.60079,2470.6,2023-2-18T12:25:24Z
2023-02-18T10:26:02Z,42.805,6.029,13.3026,4.60078,2470.553,2023-2-18T12:28:28Z
2023-02-18T10:29:05Z,42.805,6.029,13.3025,4.60079,2470.553,2023-2-18T12:31:31Z
2023-02-18T10:32:08Z,42.805,6.029,13.3026,4.60079,2470.577,2023-2-18T12:34:34Z
2023-02-18T10:35:11Z,42.805,6.029,13.3022,4.60080,2470.6,2023-2-18T12:37:37Z
2023-02-18T10:38:14Z,42.805,6.029,13.3024,4.60080,2470.577,2023-2-18T12:40:40Z
2023-02-18T10:41:17Z,42.805,6.029,13.3024,4.60079,2470.553,2023-2-18T12:43:43Z
2023-02-18T10:44:20Z,42.805,6.029,13.3024,4.60079,2470.6,2023-2-18T12:46:46Z
2023-02-18T10:47:23Z,42.805,6.029,13.3023,4.60079,2470.567,2023-2-18T12:49:49Z
2023-02-18T10:50:27Z,42.805,6.029,13.3024,4.60079,2470.553,2023-2-18T12:52:52Z
2023-02-18T10:53:30Z,42.805,6.029,13.3025,4.60084,2470.553,2023-2-18T12:55:55Z
2023-02-18T10:56:33Z,42.805,6.029,13.3023,4.60082,2470.553,2023-2-18T12:58:58Z
2023-02-18T10:59:36Z,42.805,6.029,13.3026,4.60079,2470.567,2023-2-18T13:02:01Z
2023-02-18T11:02:39Z,42.805,6.029,13.3028,4.60079,2470.577,2023-2-18T13:05:05Z
2023-02-18T11:05:42Z,42.805,6.029,13.3021,4.60081,2470.53,2023-2-18T13:08:08Z
2023-02-18T11:08:45Z,42.805,6.029,13.3026,4.60080,2470.53,2023-2-18T13:11:11Z
2023-02-18T11:11:48Z,42.805,6.029,13.3026,4.60079,2470.577,2023-2-18T13:14:14Z
2023-02-18T11:14:51Z,42.805,6.029,13.3022,4.60080,2470.544,2023-2-18T13:17:17Z
2023-02-18T11:17:54Z,42.805,6.029,13.3022,4.60079,2470.553,2023-2-18T13:20:20Z
2023-02-18T11:20:57Z,42.805,6.029,13.3026,4.60081,2470.53,2023-2-18T13:23:23Z
2023-02-18T11:24:00Z,42.805,6.029,13.3029,4.60081,2470.544,2023-2-18T13:26:26Z
2023-02-18T11:27:04Z,42.805,6.029,13.3024,4.60081,2470.567,2023-2-18T13:29:29Z
2023-02-18T11:30:07Z,42.805,6.029,13.3026,4.60081,2470.591,2023-2-18T13:32:32Z
2023-02-18T11:33:10Z,42.805,6.029,13.3028,4.60084,2470.53,2023-2-18T13:35:35Z
2023-02-18T11:36:13Z,42.805,6.029,13.3024,4.60081,2470.53,2023-2-18T13:38:38Z
2023-02-18T11:39:16Z,42.805,6.029,13.3028,4.60081,2470.53,2023-2-18T13:41:42Z
2023-02-18T11:42:19Z,42.805,6.029,13.3024,4.60081,2470.53,2023-2-18T13:44:45Z
2023-02-18T11:45:22Z,42.805,6.029,13.3029,4.60079,2470.53,2023-2-18T13:47:48Z
2023-02-18T11:48:25Z,42.805,6.029,13.3030,4.60081,2470.553,2023-2-18T13:50:51Z
2023-02-18T11:51:28Z,42.805,6.029,13.3026,4.60081,2470.53,2023-2-18T13:53:54Z
2023-02-18T11:54:31Z,42.805,6.029,13.3027,4.60079,2470.507,2023-2-18T13:56:57Z
2023-02-18T11:57:34Z,42.805,6.029,13.3024,4.60081,2470.507,2023-2-18T14:00:00Z
2023-02-18T12:00:37Z,42.805,6.029,13.3024,4.60084,2470.53,2023-2-18T14:03:03Z
2023-02-18T12:03:41Z,42.805,6.029,13.3027,4.60082,2470.507,2023-2-18T14:06:06Z
2023-02-18T12:06:44Z,42.805,6.029,13.3026,4.60081,2470.544,2023-2-18T14:09:09Z
2023-02-18T12:09:47Z,42.805,6.029,13.3028,4.60081,2470.497,2023-2-18T14:12:12Z
2023-02-18T12:12:50Z,42.805,6.029,13.3024,4.60081,2470.483,2023-2-18T14:15:15Z
2023-02-18T12:15:53Z,42.805,6.029,13.3026,4.60079,2470.544,2023-2-18T14:18:18Z
2023-02-18T12:18:56Z,42.805,6.029,13.3026,4.60079,2470.53,2023-2-18T14:21:22Z
2023-02-18T12:21:59Z,42.805,6.029,13.3026,4.60081,2470.507,2023-2-18T14:24:25Z
2023-02-18T12:25:02Z,42.805,6.029,13.3022,4.60081,2470.493,2023-2-18T14:27:28Z
2023-02-18T12:28:05Z,42.805,6.029,13.3026,4.60080,2470.507,2023-2-18T14:30:31Z
2023-02-18T12:31:08Z,42.805,6.029,13.3024,4.60081,2470.507,2023-2-18T14:33:34Z
2023-02-18T12:34:11Z,42.805,6.029,13.3026,4.60081,2470.483,2023-2-18T14:36:37Z
2023-02-18T12:37:14Z,42.805,6.029,13.3027,4.60081,2470.507,2023-2-18T14:39:40Z
2023-02-18T12:40:17Z,42.805,6.029,13.3025,4.60081,2470.483,2023-2-18T14:42:43Z
2023-02-18T12:43:21Z,42.805,6.029,13.3024,4.60079,2470.47,2023-2-18T14:45:46Z
2023-02-18T12:46:24Z,42.805,6.029,13.3025,4.60081,2470.483,2023-2-18T14:48:49Z
2023-02-18T12:49:27Z,42.805,6.029,13.3023,4.60079,2470.507,2023-2-18T14:51:52Z
2023-02-18T12:52:30Z,42.805,6.029,13.3026,4.60080,2470.52,2023-2-18T14:54:56Z
2023-02-18T12:55:33Z,42.805,6.029,13.3023,4.60079,2470.483,2023-2-18T14:57:59Z
2023-02-18T12:58:36Z,42.805,6.029,13.3025,4.60080,2470.46,2023-2-18T15:01:02Z
2023-02-18T13:01:39Z,42.805,6.029,13.3026,4.60079,2470.497,2023-2-18T15:04:05Z
2023-02-18T13:04:42Z,42.805,6.029,13.3021,4.60081,2470.483,2023-2-18T15:07:08Z
2023-02-18T13:07:45Z,42.805,6.029,13.3026,4.60079,2470.483,2023-2-18T15:10:11Z
2023-02-18T13:10:48Z,42.805,6.029,13.3026,4.60078,2470.483,2023-2-18T15:13:14Z
2023-02-18T13:13:51Z,42.805,6.029,13.3028,4.60079,2470.493,2023-2-18T15:16:17Z
2023-02-18T13:16:54Z,42.805,6.029,13.3023,4.60082,2470.483,2023-2-18T15:19:20Z
2023-02-18T13:19:58Z,42.805,6.029,13.3025,4.60079,2470.52,2023-2-18T15:22:23Z
2023-02-18T13:23:01Z,42.805,6.029,13.3023,4.60078,2470.483,2023-2-18T15:25:26Z
2023-02-18T13:26:04Z,42.805,6.029,13.3024,4.60081,2470.497,2023-2-18T15:28:29Z
2023-02-18T13:29:07Z,42.805,6.029,13.3028,4.60080,2470.497,2023-2-18T15:31:32Z
2023-02-18T13:32:10Z,42.805,6.029,13.3021,4.60080,2470.483,2023-2-18T15:34:36Z
2023-02-18T13:35:13Z,42.805,6.029,13.3028,4.60086,2470.483,2023-2-18T15:37:39Z
2023-02-18T13:38:16Z,42.805,6.029,13.3024,4.60079,2470.437,2023-2-18T15:40:42Z
2023-02-18T13:41:19Z,42.805,6.029,13.3021,4.60081,2470.483,2023-2-18T15:43:45Z
2023-02-18T13:44:22Z,42.805,6.029,13.3021,4.60081,2470.483,2023-2-18T15:46:48Z
2023-02-18T13:47:25Z,42.805,6.029,13.3026,4.60079,2470.46,2023-2-18T15:49:51Z
2023-02-18T13:50:28Z,42.805,6.029,13.3025,4.60088,2470.497,2023-2-18T15:52:54Z
2023-02-18T13:53:31Z,42.805,6.029,13.3026,4.60084,2470.483,2023-2-18T15:55:57Z
2023-02-18T13:56:35Z,42.805,6.029,13.3022,4.60079,2470.46,2023-2-18T15:59:00Z
2023-02-18T13:59:38Z,42.805,6.029,13.3024,4.60078,2470.507,2023-2-18T16:02:03Z
2023-02-18T14:02:41Z,42.805,6.029,13.3024,4.60078,2470.507,2023-2-18T16:05:06Z
2023-02-18T14:05:44Z,42.805,6.029,13.3021,4.60079,2470.483,2023-2-18T16:08:10Z
2023-02-18T14:08:47Z,42.805,6.029,13.3024,4.60081,2470.46,2023-2-18T16:11:13Z
2023-02-18T14:11:50Z,42.805,6.029,13.3021,4.60081,2470.483,2023-2-18T16:14:16Z
2023-02-18T14:14:53Z,42.805,6.029,13.3022,4.60083,2470.483,2023-2-18T16:17:19Z
2023-02-18T14:17:56Z,42.805,6.029,13.3026,4.60078,2470.483,2023-2-18T16:20:22Z
2023-02-18T14:20:59Z,42.805,6.029,13.3022,4.60078,2470.497,2023-2-18T16:23:25Z
2023-02-18T14:24:02Z,42.805,6.029,13.3026,4.60080,2470.507,2023-2-18T16:26:28Z
2023-02-18T14:27:05Z,42.805,6.029,13.3024,4.60080,2470.483,2023-2-18T16:29:31Z
2023-02-18T14:30:08Z,42.805,6.029,13.3024,4.60079,2470.507,2023-2-18T16:32:34Z
2023-02-18T14:33:12Z,42.805,6.029,13.3023,4.60077,2470.483,2023-2-18T16:35:37Z
2023-02-18T14:36:15Z,42.805,6.029,13.3024,4.60078,2470.47,2023-2-18T16:38:40Z
2023-02-18T14:39:18Z,42.805,6.029,13.3025,4.60078,2470.507,2023-2-18T16:41:43Z
2023-02-18T14:42:21Z,42.805,6.029,13.3024,4.60079,2470.46,2023-2-18T16:44:47Z
2023-02-18T14:45:24Z,42.805,6.029,13.3023,4.60079,2470.507,2023-2-18T16:47:50Z
2023-02-18T14:48:27Z,42.805,6.029,13.3023,4.60079,2470.507,2023-2-18T16:50:53Z
2023-02-18T14:51:30Z,42.805,6.029,13.3021,4.60079,2470.52,2023-2-18T16:53:56Z
2023-02-18T14:54:33Z,42.805,6.029,13.3021,4.60078,2470.53,2023-2-18T16:56:59Z
2023-02-18T14:57:36Z,42.805,6.029,13.3021,4.60081,2470.53,2023-2-18T17:00:02Z
2023-02-18T15:00:39Z,42.805,6.029,13.3024,4.60077,2470.52,2023-2-18T17:03:05Z
2023-02-18T15:03:42Z,42.805,6.029,13.3024,4.60080,2470.483,2023-2-18T17:06:08Z
2023-02-18T15:06:45Z,42.805,6.029,13.3023,4.60077,2470.497,2023-2-18T17:09:11Z
2023-02-18T15:09:49Z,42.805,6.029,13.3024,4.60077,2470.53,2023-2-18T17:12:14Z
2023-02-18T15:12:52Z,42.805,6.029,13.3024,4.60079,2470.52,2023-2-18T17:15:17Z